星链-2106 (STARLINK-2106 )

导读 | 星芒AI

STARLINK-2106 是 SpaceX Starlink 卫星互联网项目中的一颗低轨道通信卫星。它属于第二代 Starlink 卫星,旨在提供全球高速互联网服务。该卫星采用先进推进系统和激光通信技术,以提升网络速度与稳定性。其部署有助于扩大 Starlink 在偏远地区的覆盖范围,支持更多用户接入互联网。STARLINK-2106 于 2023 年发射,是 SpaceX 扩展其卫星星座计划的一部分。

基本信息
目录编号:
47386
目录名称:
STARLINK-2106
国际标识:
2021-005AP
轨道中心:
EARTH
卫星名称:
星链-2106
卫星全名:
星链-2106 (STARLINK-2106 )
卫星状态:
在轨 (已飞行1791 天)
发射日期:
2021-01-20 UTC
国别 :
美国 (US)
星等 :
--
轨道信息
数据来源 国际轨道数据 AOE轨道数据
星历时间 2025-12-16T05:02:55+0800
19小时前
查看轨道信息
2025-12-13T10:00:00+0800
3天前
查看轨道信息
半长轴 6925.376km 6925.374km
偏心率 0.0001403 0.0001409
轨道倾角 53.056° 53.056°
近地点辐角 88.474° 82.183°
升交点赤经 47.870° 60.410°
平近点角 271.641° 239.361°
近地点 546.269km 546.263km
远地点 548.213km 548.215km
周期 95.593分钟 95.593分钟
每日圈数 15.063913 15.063919
详细信息
固有亮度:
5
最大亮度:
2.5
卫星平台:
Starlink V1.0
覆盖范围:
全球
运营商:
太空探索技术公司
运营商所在国:
美国
制造商(研发单位):
太空探索技术公司
制造商所在国:
美国
使用方式:
暂无
卫星简介
星链(Starlink)计划是由太空探索技术公司(SpaceX)提出的一个巨型低轨卫星互联网星座项目,计划在2019年至2024年间在太空搭建由约1.2万颗卫星组成的“星链”网络,其中1584颗将部署在地球上空550千米处的近地轨道,并从2020年开始工作。该卫星仍在工作。
2D轨道图
3D轨道图
轨道高度分析图
轨道倾角分析图
轨道综合分析图
查看轨道综合分析图